Probability
91 94 97 94 88 81 75 66 56 49 46 37 22 12 9 9 9 14 26 32 24 11 5 5 5 4 3 4 5 4 3 2 1 1 1 1 0 0 0 0 0 0 0
87 88 90 89 86 81 77 69 60 53 46 36 22 14 10 9 10 12 19 24 19 10 5 6 8 7 5 5 5 7 6 5 4 4 4 2 0 0 0 0 0 0 0
72 75 78 79 79 81 82 75 65 56 45 31 22 18 16 13 12 12 14 18 16 8 6 10 13 12 10 6 6 8 9 9 8 7 6 4 1 1 1 1 0 0 0
52 58 67 69 70 73 74 68 60 51 38 25 20 21 20 17 13 11 12 15 15 10 8 12 14 15 12 8 7 8 11 11 10 8 7 4 2 1 1 1 0 0 0
31 40 52 57 58 59 56 49 43 38 28 18 14 14 15 14 11 8 7 8 10 9 8 10 11 10 9 9 10 12 14 13 9 8 8 6 3 1 0 0 0 0 0
17 25 35 42 45 45 41 33 27 25 21 14 8 6 7 7 6 5 3 3 4 4 4 5 6 4 4 7 10 14 16 14 9 8 10 9 5 2 1 0 0 0 0
11 17 26 33 37 37 32 25 20 17 14 11 8 6 4 2 3 3 2 1 1 1 0 1 2 2 2 3 5 9 13 13 10 8 8 10 9 7 3 1 0 0 0
9 14 22 29 33 34 29 22 16 11 7 5 5 4 3 1 1 1 1 1 0 0 0 0 1 1 1 0 1 3 7 9 9 7 8 11 13 12 6 2 1 1 1
6 9 14 21 27 30 27 20 13 8 4 2 1 1 1 0 0 0 0 0 0 0 0 0 0 0 0 0 0 0 2 4 6 7 9 12 13 10 7 5 5 5 4
2 3 5 9 14 18 19 16 12 9 5 3 1 0 0 0 0 0 0 0 0 0 0 0 0 0 0 0 0 0 1 2 3 5 7 10 10 8 7 8 11 11 9
0 0 1 2 3 6 9 12 14 11 6 4 2 1 0 0 0 0 0 0 0 0 0 0 0 0 0 0 0 0 0 1 1 2 3 5 8 10 11 12 15 16 15
0 0 0 0 0 1 4 9 13 11 8 6 4 2 1 1 0 0 0 0 0 0 0 0 0 0 0 0 0 0 0 0 0 0 0 2 6 11 15 16 19 23 24
0 0 0 0 0 0 1 4 8 10 9 8 8 8 7 4 1 0 0 0 0 0 0 0 0 0 0 0 0 0 0 0 0 0 0 1 3 8 12 15 20 26 31
0 0 0 0 0 0 0 2 3 6 9 10 10 14 17 13 7 3 1 0 0 0 0 0 0 0 0 0 0 0 0 0 0 0 0 0 1 3 6 8 12 19 25
0 0 0 0 0 0 0 1 1 2 5 8 11 17 24 25 19 11 6 2 1 1 0 0 0 0 0 0 0 0 1 0 0 0 0 0 0 1 1 2 3 7 10
0 0 0 0 0 0 0 0 0 0 2 5 10 15 25 34 33 26 18 10 5 2 1 0 0 1 1 0 0 0 0 0 0 0 0 0 0 0 0 0 0 0 1
0 0 0 0 0 0 0 0 0 0 0 2 6 10 19 31 38 39 35 26 16 9 5 3 3 3 2 1 0 0 0 0 0 0 0 0 0 0 0 0 0 0 0
0 0 0 0 0 0 0 0 0 0 0 1 3 6 12 22 32 43 48 44 35 25 17 12 11 10 6 1 0 0 0 0 0 0 0 0 0 0 0 0 0 0 0
0 0 0 0 0 0 0 0 0 0 0 0 1 3 8 13 22 35 46 53 52 46 37 28 24 22 13 5 1 0 0 0 0 0 0 0 0 0 0 0 0 0 0
0 0 0 0 0 0 0 0 0 0 0 0 0 1 3 6 11 20 31 45 54 58 53 42 37 33 20 9 3 1 0 0 0 0 0 0 0 0 0 0 0 0 0
0 0 1 1 1 0 0 0 0 0 0 0 0 0 1 1 3 6 13 25 37 49 53 47 42 37 24 12 4 1 0 0 0 0 0 0 0 0 0 0 0 0 0
0 0 1 1 1 0 0 0 0 0 0 0 0 0 0 0 0 1 3 7 15 25 35 39 39 37 28 15 6 2 0 0 0 0 0 0 0 0 0 0 0 0 0
0 0 0 1 1 1 0 0 0 0 0 0 0 0 0 0 0 0 0 0 3 7 15 24 30 34 31 21 11 4 1 0 0 0 0 0 0 0 0 0 0 0 0
0 0 0 1 1 1 0 0 0 0 0 0 0 0 0 0 0 0 0 0 1 1 4 10 17 23 23 20 14 8 3 1 0 0 0 0 0 0 0 0 0 0 0
0 0 0 0 0 0 0 0 0 0 0 0 0 0 0 0 0 0 0 1 2 1 1 2 5 8 8 8 9 7 4 1 0 0 0 0 0 0 0 0 0 0 0
0 0 0 0 0 0 0 0 0 0 0 0 0 0 0 0 0 0 0 1 2 2 1 0 0 1 0 1 3 4 3 1 0 0 0 0 0 0 0 0 0 0 0
Wind_Speed
9 9 7 7 9 8 9 9 10 10 11 11 11 12 13 13 11 10 6 12 14 15 17 17 16 16 14 14 16 17 17 17 18 19 19 18 17 16 16 15 14 13 12
9 8 9 8 9 9 9 9 10 10 9 9 11 13 13 13 12 12 11 10 15 16 17 17 17 17 16 14 15 16 16 17 17 18 19 19 18 18 17 17 16 14 14
10 9 9 9 9 9 9 9 10 9 9 10 12 13 11 12 12 12 12 9 10 15 17 16 16 16 16 16 16 16 16 16 16 16 18 19 19 18 18 18 17 16 15
10 8 8 8 8 7 7 8 8 7 8 8 8 9 9 9 12 12 11 10 9 9 14 18 16 15 16 17 18 18 17 17 16 16 17 18 19 19 18 18 18 18 17
8 7 7 7 7 6 7 8 7 6 8 8 8 8 8 9 10 11 11 12 11 10 9 12 16 15 17 19 19 19 18 18 17 17 17 18 19 20 19 19 18 18 18
5 6 6 6 6 5 6 6 6 6 6 6 8 7 7 8 8 9 10 10 10 12 12 10 10 13 17 17 17 18 19 20 19 18 18 18 19 19 19 19 19 19 19
5 5 4 4 5 6 6 6 6 7 7 6 6 7 8 9 9 8 8 9 10 10 10 10 9 8 9 17 16 16 19 20 20 20 19 19 19 18 18 19 19 19 19
7 5 4 3 4 4 5 5 6 6 6 5 6 7 7 8 8 9 8 8 9 8 10 11 10 9 8 7 11 18 17 19 20 20 20 20 19 17 17 18 18 19 19
7 6 7 5 5 6 5 6 7 8 7 6 7 7 6 6 4 6 7 7 7 7 8 7 9 9 9 8 7 15 17 16 18 20 19 19 18 18 18 19 19 19 19
7 6 5 6 5 6 6 7 8 7 9 8 6 7 8 6 5 4 7 7 8 7 7 6 7 7 8 8 7 4 11 13 15 17 18 18 19 19 19 20 20 20 20
5 5 5 4 4 5 6 8 7 8 8 9 7 6 7 6 8 7 5 6 7 7 7 7 6 6 6 7 6 5 8 10 12 13 14 15 17 18 20 20 21 21 20
4 4 4 3 4 4 6 7 7 9 9 9 8 7 7 7 8 8 7 6 6 5 5 4 5 5 4 5 4 3 2 6 9 10 11 12 14 16 18 20 21 21 20
6 5 5 4 4 4 5 6 7 9 10 10 10 8 8 8 7 7 7 6 5 4 4 6 4 3 3 2 1 1 3 4 6 8 9 10 11 12 14 16 18 18 18
9 8 7 7 6 6 5 5 6 8 8 9 11 11 8 9 8 7 7 6 6 6 7 6 4 4 2 2 2 4 3 3 3 4 6 7 8 9 10 11 13 13 13
10 10 10 10 9 8 7 6 5 6 7 9 10 11 10 9 8 8 8 7 7 7 6 7 5 5 3 3 2 1 4 7 5 4 4 5 6 6 7 8 8 9 10
13 13 13 12 11 10 9 9 8 7 7 7 7 10 10 9 9 9 9 8 8 7 5 5 5 6 4 4 4 5 7 9 10 8 7 7 7 7 7 7 8 8 8
14 14 14 14 14 13 11 10 10 9 9 8 8 9 11 11 8 8 9 9 9 8 7 5 5 6 6 5 5 5 5 5 8 11 11 11 10 9 9 9 9 9 9
15 16 15 15 15 15 14 13 13 11 11 10 9 8 9 8 10 9 8 10 9 8 8 7 6 7 7 7 7 6 6 6 8 12 13 13 13 12 12 12 11 11 11
15 16 16 16 16 16 15 15 14 13 12 11 10 10 8 9 10 8 9 9 9 9 9 7 7 6 6 7 8 7 8 7 8 10 13 14 14 14 14 14 13 13 13
15 15 16 16 17 16 16 16 15 14 13 12 11 11 10 8 7 8 8 8 7 8 9 8 7 7 7 8 8 7 6 5 6 7 9 10 14 15 15 15 15 15 14
16 16 16 16 16 15 15 16 15 15 14 13 12 12 11 11 10 7 6 6 6 6 7 8 8 7 8 9 8 7 7 7 6 5 7 7 8 8 10 12 14 15 15
16 15 15 16 16 15 13 13 14 15 13 13 12 12 11 12 14 13 11 9 7 7 6 7 8 9 10 10 9 9 9 8 5 4 6 6 6 7 7 9 13 15 15
15 15 15 15 16 16 12 11 14 14 14 13 12 11 10 10 13 12 13 12 11 10 9 6 7 8 9 10 12 13 11 10 7 8 7 7 6 8 8 10 13 14 15
14 13 14 14 14 14 12 12 13 15 14 14 13 12 12 9 11 11 11 11 11 11 11 9 8 7 6 8 12 12 11 9 9 6 5 6 7 8 9 9 12 13 14
13 13 12 13 13 12 12 13 13 12 12 14 14 13 12 12 9 9 10 10 11 10 12 11 8 6 5 6 9 10 12 11 8 5 3 6 8 9 8 8 10 12 12
12 11 11 11 11 12 11 13 14 11 11 11 11 11 10 9 9 11 11 10 10 10 10 10 9 8 8 9 13 14 14 13 11 7 6 7 11 9 7 7 9 9 10
Wind_Direction
239 236 233 234 237 235 228 229 235 236 236 237 235 231 232 234 240 238 223 197 208 219 226 227 224 224 222 220 220 219 219 220 216 212 210 210 210 207 204 204 202 200 198
246 244 238 233 235 238 241 239 239 239 241 241 240 236 235 232 233 235 237 216 211 219 224 225 224 222 220 218 217 218 220 222 223 219 214 212 210 209 207 205 204 202 200
249 245 246 239 237 236 235 239 242 243 243 241 240 241 237 235 232 231 233 234 221 214 220 222 221 220 219 218 217 216 218 219 220 223 221 215 212 210 209 207 205 203 202
251 249 248 247 244 239 236 235 238 239 243 247 246 244 240 235 236 234 232 229 233 229 212 213 217 218 217 216 216 213 213 214 215 217 223 220 215 211 210 209 207 205 203
261 260 252 251 246 236 235 241 232 238 243 244 244 237 238 236 235 234 231 231 228 232 233 200 207 218 221 220 218 214 211 208 211 213 218 220 219 213 210 210 209 208 206
275 272 262 261 257 244 237 237 249 239 253 250 253 248 235 232 231 233 232 231 226 225 228 226 210 211 216 223 220 215 212 208 207 210 215 218 221 216 211 210 210 210 209
330 288 278 276 266 255 252 249 246 238 239 241 248 248 238 233 234 235 236 241 234 228 230 227 231 231 205 209 215 215 213 212 209 210 213 215 218 216 212 213 212 212 212
347 332 314 290 279 279 267 264 252 263 253 229 245 252 243 222 213 226 224 223 235 229 226 223 226 225 241 220 200 205 213 217 215 212 212 211 211 211 211 215 216 214 213
353 354 338 330 317 298 280 265 251 246 255 240 234 252 258 248 204 187 214 218 215 223 227 222 222 221 224 234 221 197 204 212 218 218 215 211 209 208 209 214 216 216 214
351 349 345 339 325 303 290 273 252 245 247 248 225 235 261 304 283 207 190 199 203 215 231 229 229 220 227 234 225 220 197 210 218 224 222 215 209 206 207 211 214 214 214
336 337 338 337 327 310 301 286 281 255 243 248 245 224 222 226 244 271 230 188 194 206 212 222 237 239 233 238 239 219 186 209 218 223 224 221 214 208 206 208 212 212 212
301 308 311 315 311 308 303 295 282 263 254 251 255 248 229 222 221 229 239 224 214 203 205 221 230 226 229 241 235 64 185 221 220 220 221 220 217 212 210 210 211 211 211
288 283 284 279 280 280 286 291 284 277 266 254 245 245 245 243 238 230 237 231 224 208 198 213 201 206 207 226 184 57 205 220 220 218 217 215 214 210 208 208 210 210 210
286 286 269 260 257 258 264 269 276 275 272 264 253 246 245 244 239 231 233 231 221 212 200 200 167 177 169 178 85 266 157 131 182 196 200 202 202 200 200 200 200 202 202
277 271 263 257 252 246 249 253 256 267 273 267 262 252 243 240 237 233 229 231 235 227 198 172 187 155 164 126 112 111 84 79 91 121 143 153 156 164 175 179 183 186 188
278 272 266 260 254 246 239 240 248 248 256 262 263 261 250 244 235 227 224 224 229 244 236 160 169 152 139 132 108 97 95 100 78 86 100 111 118 127 136 143 145 150 155
277 271 263 259 253 248 243 237 242 242 245 252 256 259 253 250 244 231 222 219 217 222 225 190 164 144 154 150 129 114 106 102 90 81 88 94 100 105 110 116 121 125 128
275 269 263 257 253 250 245 240 240 240 238 241 243 250 256 249 245 245 231 220 215 213 220 206 176 165 163 151 133 120 107 92 91 84 86 87 88 90 93 97 101 104 105
278 271 265 257 251 249 247 242 240 240 238 238 236 235 243 251 241 238 242 231 218 208 216 212 192 164 154 147 134 120 107 104 100 103 93 88 86 87 88 90 92 93 94
280 271 264 258 252 247 243 239 236 236 236 237 234 231 226 228 242 237 237 242 233 215 207 214 195 172 160 157 151 142 128 116 107 100 88 91 93 89 89 92 95 95 92
281 274 265 258 252 246 240 234 233 233 231 234 232 228 223 215 217 234 239 235 238 229 212 208 200 181 170 168 167 157 139 121 98 114 118 116 118 114 106 102 98 100 98
284 278 269 260 251 245 236 223 228 236 232 231 232 229 223 207 210 213 228 232 233 234 229 217 207 196 185 180 168 157 148 147 135 144 126 112 112 108 105 97 101 104 103
286 278 271 263 254 248 236 212 214 234 235 232 230 227 229 209 195 204 208 216 224 231 245 246 241 221 194 184 172 168 169 168 142 150 136 114 109 97 93 95 103 105 105
287 281 272 266 258 246 222 206 205 227 236 233 229 226 227 223 206 205 203 207 216 214 217 227 242 248 230 192 182 174 156 125 114 130 136 121 121 110 105 106 102 103 105
286 279 270 265 257 246 217 199 201 224 228 231 229 224 221 221 190 190 213 212 214 212 206 213 228 257 268 201 173 154 147 143 137 145 155 129 134 123 116 116 111 104 105
284 278 267 260 253 243 214 195 202 225 225 225 221 222 218 224 179 183 217 219 219 214 202 197 207 221 217 185 172 172 166 160 148 149 172 147 149 140 128 133 139 141 126